Weather History for Tijuana, Mexico

Change the Weather History Date:

Tuesday, September 10, 2013

  Actual Average Record
Temperature  
Mean Temperature 70 °F -  
Max Temperature 75 °F 77 °F - ()
Min Temperature 62 °F 59 °F - ()
Cooling Degree Days 4    
Growing Degree Days 20 (Base 50)    
Moisture  
Dew Point 57 °F    
Average Humidity 67    
Maximum Humidity 83    
Minimum Humidity 53    
Precipitation  
Precipitation 0.00 in - - ()
Sea Level Pressure  
Sea Level Pressure 29.91 in    
Wind  
Wind Speed 4 mph ()    
Max Wind Speed 14 mph    
Max Gust Speed -    
Visibility 6.8 miles    
Events      
T = Trace of Precipitation, MM = Missing Value Source: Averaged Metar Reports

Daily Weather History Graph

Daily Weather History Graph

Search for Another Location

Airport:

Trip Planner

Search our weather history database for the weather conditions in past years. The results will help you decide how hot, cold, wet, or windy it might be!

Date:

Astronomy

Sep. 10, 2013 Rise Set
Actual Time 6:28 AM PDT 7:00 PM PDT
Civil Twilight 6:03 AM PDT 7:24 PM PDT
Nautical Twilight 5:34 AM PDT 7:53 PM PDT
Astronomical Twilight 5:05 AM PDT 8:23 PM PDT
Moon 11:39 AM PDT (9/10) 10:27 PM PDT (9/10)
Length of Visible Light 13h 21m
Length of Day
12h 31m
Waxing Crescent, 29% of the Moon is Illuminated
Sep 10
Waxing Crescent
Sep 12
First Quarter
Sep 19
Full
Sep 26
Last Quarter
Oct 4
New

Hourly Weather History & Observations

Time (PDT) Temp. Dew Point Humidity Pressure Visibility Wind Dir Wind Speed Gust Speed Precip Events Conditions
12:51 AM 64.4 °F 59.0 °F 83% 29.85 in 5.0 mi NW 6.9 mph - N/A   Overcast
1:47 AM 64.4 °F 59.0 °F 83% 29.84 in 5.0 mi Calm Calm - N/A   Overcast
2:42 AM 64.4 °F 59.0 °F 83% 29.87 in 5.0 mi Calm Calm - N/A   Overcast
3:42 AM 66.2 °F 59.0 °F 78% 29.86 in 5.0 mi Calm Calm - N/A   Overcast
5:51 AM 66.2 °F 57.2 °F 73% 29.88 in 5.0 mi Calm Calm - N/A   Overcast
6:46 AM 64.4 °F 57.2 °F 77% 29.89 in 6.0 mi Calm Calm - N/A   Overcast
7:40 AM 66.2 °F 57.2 °F 73% 29.91 in 5.0 mi WSW 5.8 mph - N/A   Overcast
8:40 AM 68.0 °F 57.2 °F 68% 29.93 in 5.0 mi SW 3.5 mph - N/A   Overcast
9:15 AM 69.8 °F 59.0 °F 68% 29.93 in 6.0 mi Calm Calm - N/A   Scattered Clouds
9:44 AM 73.4 °F 57.2 °F 57% 29.93 in 6.0 mi South 2.3 mph - N/A   Partly Cloudy
10:47 AM 75.2 °F 57.2 °F 53% 29.91 in 6.0 mi South 4.6 mph - N/A   Clear
11:52 AM 73.4 °F 57.2 °F 57% 29.92 in 6.0 mi West 11.5 mph - N/A   Clear
12:51 PM 75.2 °F 57.2 °F 53% 29.91 in 7.0 mi West 5.8 mph - N/A   Clear
1:50 PM 73.4 °F 55.4 °F 53% 29.91 in 8.0 mi West 13.8 mph - N/A   Clear
2:44 PM 73.4 °F 55.4 °F 53% 29.90 in 10.0 mi West 8.1 mph - N/A   Clear
3:40 PM 73.4 °F 55.4 °F 53% 29.90 in 10.0 mi West 9.2 mph - N/A   Clear
4:48 PM 73.4 °F 55.4 °F 53% 29.91 in 10.0 mi West 8.1 mph - N/A   Clear
5:50 PM 69.8 °F 55.4 °F 60% 29.90 in 10.0 mi West 8.1 mph - N/A   Clear
6:40 PM 68.0 °F 57.2 °F 68% 29.92 in 10.0 mi West 9.2 mph - N/A   Clear
7:49 PM 66.2 °F 55.4 °F 68% 29.93 in 8.0 mi West 9.2 mph - N/A   Clear
8:46 PM 64.4 °F 57.2 °F 77% 29.95 in 8.0 mi WNW 6.9 mph - N/A   Clear
9:45 PM 64.4 °F 55.4 °F 73% 29.97 in 5.0 mi West 4.6 mph - N/A   Clear
10:54 PM 62.6 °F 55.4 °F 77% 29.99 in 5.0 mi Calm Calm - N/A   Clear